Location: Unspecified
(22.6800°N, 112.2000°E)
Time: 19:53:56
(UTC+08:00)

Explorer 11/Cluster Stage 4 - Visible Passes

Search period start: 02 August 2021 00:00
Search period end: 12 August 2021 00:00
Orbit: 467 x 1257 km, 28.8° (Epoch: 01 August)

Date Brightness Start Highest point End Pass type
(mag) Time Alt. Az. Time Alt. Az. Time Alt. Az.
02 Aug 9.1 05:29:13 10° S 05:33:10 16° SE 05:37:30 10° ESE visible
03 Aug 8.9 05:17:34 10° S 05:21:52 19° SE 05:26:41 10° ESE visible
04 Aug 8.8 05:06:04 10° SSW 05:10:34 21° SE 05:15:45 10° E visible
05 Aug 8.5 04:54:52 11° SSW 04:59:18 24° SE 05:04:43 10° E visible
06 Aug 8.2 04:44:39 16° SSW 04:48:02 27° SE 04:53:36 10° E visible
07 Aug 7.9 04:34:23 22° S 04:36:48 31° SSE 04:42:28 10° E visible
08 Aug 7.5 04:24:07 30° S 04:25:36 36° SSE 04:31:18 10° E visible
09 Aug 7.1 04:13:49 39° SSE 04:14:25 41° SSE 04:20:06 10° E visible
10 Aug 6.9 04:03:30 47° SE 04:03:30 47° SE 04:08:52 10° E visible
11 Aug 7.0 03:53:10 46° ESE 03:53:10 46° ESE 03:57:38 10° ENE visible
11 Aug 7.1 05:35:41 10° W 05:40:51 60° N 05:47:23 10° ENE visible
